Wind_Speed
20 19 18 17 16 14 14 14 14 13 13 12 13 13 14 15 15 16 16 17 18 18 19 19 20 20 20 20 20 20 20 20 20 20 20 20 20 20 20 21 22 23 23 23 23 23 23 24 24 25 25 26
20 19 18 18 17 15 14 14 14 14 13 14 14 15 15 16 16 16 17 17 18 19 20 20 21 21 22 22 23 23 22 23 23 22 22 21 21 21 22 23 24 24 23 23 23 24 25 25 25 26 26 26
20 19 18 18 17 16 15 14 14 14 14 15 15 16 16 16 16 16 16 17 18 19 20 21 21 22 23 23 24 24 24 24 24 24 23 23 23 23 23 24 25 24 24 24 24 25 26 26 26 27 27 27
19 19 19 19 18 17 16 15 14 15 16 16 16 17 17 16 16 16 16 16 17 18 19 20 21 22 22 23 24 24 24 25 25 25 24 24 23 23 24 25 25 24 24 24 25 25 26 27 27 27 27 27
19 19 19 19 18 17 16 16 15 16 16 16 17 17 17 16 16 16 16 16 16 17 17 19 20 21 21 22 23 24 24 24 25 25 24 23 23 24 25 25 25 25 24 25 25 25 26 27 27 27 27 27
19 19 19 19 19 18 17 17 17 17 17 17 17 17 17 16 16 16 16 16 16 16 17 18 18 19 20 21 22 22 23 24 24 24 23 22 22 23 24 25 25 25 25 25 25 25 26 26 26 26 26 26
21 21 19 19 19 18 18 18 18 18 17 17 18 18 17 17 17 17 16 16 16 16 17 17 18 18 19 20 20 21 21 22 22 22 22 22 21 22 23 24 24 24 25 25 25 25 25 25 25 25 25 25
23 22 20 20 19 20 19 19 19 19 18 18 18 18 18 18 18 18 17 17 17 17 17 17 18 18 19 19 19 20 21 21 21 21 22 21 21 22 23 23 24 24 24 24 24 24 24 24 24 24 24 24
25 24 22 21 20 21 20 20 20 19 18 18 19 18 18 19 19 18 18 18 17 18 18 18 18 19 19 20 20 20 21 21 21 21 22 22 21 21 22 23 23 24 24 24 24 24 24 24 23 23 23 22
27 26 24 22 22 22 21 21 21 20 19 19 19 19 19 19 19 18 18 18 18 19 19 19 19 19 20 20 20 21 22 22 22 22 22 22 22 22 22 23 23 23 23 24 24 24 24 24 23 23 23 22
29 28 26 24 24 23 23 23 22 20 19 20 20 20 20 20 19 19 19 19 19 20 20 20 20 20 21 21 21 22 22 23 23 23 23 23 23 23 23 23 23 23 23 24 24 24 24 24 24 24 23 22
30 29 27 25 25 25 24 24 23 21 22 22 22 22 21 21 20 20 20 20 20 21 21 21 21 21 22 22 22 22 23 23 24 24 24 24 24 24 24 24 24 24 24 24 24 25 25 25 26 25 24 23
31 30 27 26 27 26 26 26 24 24 25 24 24 23 23 22 21 21 21 21 21 22 22 22 22 22 22 22 23 23 23 24 25 25 25 24 24 24 24 24 24 24 24 25 25 25 26 26 27 27 26 25
30 30 28 27 28 28 27 27 26 27 27 26 26 25 24 24 23 22 22 22 22 22 22 22 23 23 23 23 24 24 24 25 26 26 26 25 25 25 25 25 25 25 25 25 25 26 26 27 28 28 27 27
28 29 29 28 29 29 29 27 27 28 28 28 28 26 26 26 25 23 22 22 22 22 22 22 23 23 24 24 24 24 25 25 26 27 26 26 26 26 26 26 25 25 26 26 26 26 27 27 28 28 29 28
28 29 29 29 30 30 29 29 29 29 30 30 29 28 27 27 26 24 23 22 21 22 22 23 23 24 24 24 24 25 26 26 27 27 27 27 27 27 26 26 26 26 26 27 27 27 28 28 28 29 29 30
30 30 29 30 31 31 30 30 30 30 30 30 29 29 28 28 27 26 24 23 22 23 23 24 25 25 25 25 26 26 27 28 29 28 28 28 28 28 28 27 26 26 27 27 28 28 28 29 29 30 30 31
34 33 32 32 32 32 32 31 31 31 31 30 29 29 29 29 29 27 26 25 25 25 25 26 27 28 27 27 28 29 30 31 31 31 30 30 29 30 29 29 28 27 27 28 29 29 29 30 31 31 31 31
37 37 36 35 34 33 33 32 31 31 31 30 30 30 31 31 30 28 28 28 27 28 28 29 30 30 30 31 32 33 33 33 34 34 33 32 32 32 31 31 30 29 29 29 29 30 30 31 31 32 32 32
39 39 39 37 37 36 34 33 31 31 31 31 31 32 32 32 31 30 30 30 30 31 31 31 32 32 33 34 36 36 37 37 37 37 36 35 35 34 34 33 33 32 31 30 30 31 31 31 32 32 32 33
39 39 39 38 38 38 36 35 33 33 33 33 33 33 33 32 32 31 31 32 32 33 34 34 35 35 36 37 39 40 40 40 40 40 40 39 38 37 37 37 36 35 34 33 32 32 32 32 33 33 33 34
37 37 38 38 39 38 38 37 35 35 35 35 35 35 35 34 33 33 33 34 34 35 36 37 37 38 39 40 41 43 43 42 42 43 43 42 41 40 40 40 39 38 37 35 34 33 33 33 33 33 34 35
37 37 38 39 39 39 39 39 38 38 37 36 36 36 36 36 36 36 36 37 37 38 39 40 41 41 41 42 43 44 45 44 45 45 45 45 44 43 43 42 42 41 40 38 36 35 35 35 34 34 35 36
39 39 40 41 41 41 41 41 41 40 39 39 38 37 36 36 36 37 37 38 40 41 42 43 44 44 44 44 45 45 45 46 46 46 46 46 46 45 45 45 44 44 43 41 39 37 36 37 36 35 36 36
39 38 39 40 41 41 40 41 41 40 40 40 38 37 36 36 35 35 36 38 40 42 44 46 46 46 46 46 46 46 46 47 47 47 47 47 47 47 47 46 46 45 45 44 42 39 38 39 38 36 36 37
34 36 37 37 37 38 39 40 41 42 42 40 38 37 36 36 36 36 36 38 40 42 45 47 49 49 49 48 48 48 49 50 50 50 50 49 49 48 47 47 47 46 46 45 43 41 41 42 40 38 37 37
33 35 36 36 37 37 40 43 44 44 43 40 39 38 39 40 40 39 39 40 42 43 46 49 50 50 50 51 51 52 53 53 53 53 52 52 51 49 48 48 47 47 47 47 45 44 44 44 42 40 39 38
35 35 36 37 38 39 41 43 44 43 43 42 41 41 42 43 42 41 41 43 45 45 46 48 50 51 51 53 53 54 54 54 54 54 53 53 53 52 50 49 48 47 48 48 47 47 47 46 44 42 40 39
36 37 38 39 40 41 42 42 43 43 43 43 43 44 44 44 43 43 44 46 47 46 47 48 49 51 52 53 53 54 54 53 54 54 55 54 54 54 52 50 49 49 50 50 49 49 50 49 47 45 41 39
37 38 39 40 42 42 42 42 43 43 44 44 45 45 45 45 44 45 46 47 47 46 47 48 49 51 52 52 53 53 54 53 53 54 55 55 55 55 53 52 52 52 52 51 51 51 51 51 49 47 43 41
38 38 38 39 41 42 43 44 44 44 45 45 46 46 46 46 46 46 46 46 46 47 48 49 50 51 52 53 53 54 53 53 52 53 53 55 56 56 54 54 54 54 53 52 52 51 52 53 52 50 47 44
Wind_Direction
241 239 239 240 241 243 245 249 253 256 259 264 269 272 274 273 271 269 266 263 261 259 258 256 255 255 254 254 255 255 255 255 255 256 257 258 260 262 263 263 264 265 266 268 269 269 267 265 263 264 265 265
239 238 239 241 243 245 247 251 255 258 262 267 270 273 273 271 270 267 265 262 260 258 256 254 253 253 252 252 252 252 253 254 254 255 255 257 258 260 261 262 263 265 268 269 270 270 269 268 267 267 266 266
238 239 241 243 245 248 251 254 260 265 268 271 273 273 273 272 270 268 266 263 261 259 256 255 253 252 252 251 251 251 252 252 253 254 255 256 257 258 259 260 262 265 267 269 271 271 271 270 269 268 268 267
239 242 245 246 248 250 254 258 263 269 272 273 274 274 274 274 273 271 268 264 262 259 257 255 254 254 253 253 253 253 253 253 254 255 255 255 256 257 258 259 262 264 266 269 270 270 270 270 269 268 268 268
241 246 249 249 250 252 256 260 264 268 271 273 274 275 276 276 275 273 270 267 265 261 259 257 255 255 255 255 255 255 256 256 256 257 256 256 256 256 256 258 259 261 263 265 267 268 268 267 266 265 265 266
246 250 252 251 251 253 256 260 263 267 270 272 274 276 278 278 277 274 272 270 268 267 263 260 258 257 256 256 257 257 258 258 258 258 258 257 256 255 256 257 258 259 260 262 263 264 264 263 262 262 262 263
249 252 253 252 251 252 255 258 261 265 268 272 275 277 279 279 277 275 275 273 271 270 268 266 263 261 260 259 259 260 260 261 260 260 260 259 258 257 257 258 258 259 260 261 260 260 260 259 260 260 260 260
249 252 253 251 249 250 252 255 258 262 266 271 272 275 277 277 276 277 276 274 273 272 271 270 269 267 266 265 264 265 265 264 264 263 263 262 261 260 260 260 260 261 261 261 259 258 257 258 259 259 260 260
249 251 252 250 248 248 250 252 255 259 264 268 271 272 273 274 275 276 276 275 274 272 271 271 271 271 270 269 269 269 269 268 267 266 265 265 264 264 263 263 263 263 262 261 260 258 257 257 259 260 260 260
248 249 252 250 247 247 248 250 252 257 263 267 269 270 270 272 273 274 275 275 274 272 271 271 272 272 271 271 270 270 270 269 268 267 267 266 267 267 266 267 267 266 265 264 262 260 259 258 259 260 260 260
248 250 252 250 247 246 247 249 251 256 262 265 266 268 269 270 271 272 273 273 273 272 271 271 271 272 273 272 271 271 270 270 269 268 268 268 268 269 270 270 270 270 270 267 265 263 262 261 260 260 260 259
250 251 251 249 246 246 248 250 252 256 259 261 263 266 268 268 268 269 271 271 272 272 271 271 271 272 273 274 273 272 272 272 271 270 269 269 270 270 271 272 272 273 273 271 268 266 264 263 262 261 260 259
250 250 250 248 247 248 250 251 252 254 255 257 261 264 265 265 266 266 267 269 271 271 272 272 272 272 273 274 274 274 275 275 274 274 273 273 273 273 273 273 273 274 274 273 272 269 267 266 265 263 262 260
249 249 250 248 248 249 250 251 252 253 253 254 258 261 263 263 263 263 264 267 269 271 273 273 273 273 274 274 276 277 278 277 277 277 277 278 277 277 276 276 275 275 274 275 274 273 271 268 267 265 264 263
246 247 248 248 248 249 250 251 252 252 252 253 255 259 260 261 261 261 262 264 267 271 272 273 274 273 274 275 277 277 277 278 278 279 279 279 279 278 278 277 277 276 275 275 274 274 272 270 269 267 266 264
240 242 243 245 246 248 250 251 252 252 252 252 254 255 257 259 259 260 260 261 265 268 271 273 274 274 275 275 276 276 277 277 277 278 279 280 279 279 278 278 278 277 276 275 274 273 271 270 269 267 266 264
232 234 236 240 244 247 248 249 250 251 251 251 252 252 255 257 257 258 258 260 262 265 268 270 272 274 275 275 274 274 274 275 276 277 278 278 279 279 279 279 278 278 277 275 274 272 271 269 268 266 264 263
227 228 230 234 239 242 244 246 248 249 249 249 249 250 252 254 255 256 257 258 260 262 265 267 269 271 272 273 272 272 272 273 274 275 275 276 277 277 278 278 278 278 277 276 275 273 271 269 268 266 264 261
226 226 227 229 232 235 238 241 243 245 247 247 247 248 250 252 253 254 255 257 259 260 262 264 267 268 269 270 269 269 269 271 272 273 273 273 274 274 275 276 277 276 276 276 276 274 272 270 268 266 264 261
229 228 227 227 228 230 233 235 238 240 244 245 245 247 248 250 251 252 255 257 259 261 262 263 264 265 267 266 266 267 268 269 270 271 271 271 271 271 272 273 273 273 274 274 275 275 273 270 268 266 264 262
234 231 228 227 227 229 230 232 235 238 240 240 241 243 245 246 247 250 253 255 257 260 261 261 261 262 263 263 264 265 266 267 268 269 269 269 269 269 270 270 270 270 270 271 273 274 274 270 268 266 265 263
237 233 230 229 230 231 232 233 236 238 239 240 240 241 242 243 244 246 248 250 253 255 256 257 258 259 259 260 262 263 264 266 267 267 268 268 268 268 267 267 266 266 267 269 271 272 273 271 268 266 265 264
235 233 232 233 234 234 235 236 237 238 239 241 241 242 243 243 244 245 247 248 250 251 253 254 255 256 257 258 260 261 263 265 266 267 268 268 267 266 265 264 263 262 263 266 268 269 270 270 268 267 266 265
236 235 235 236 236 236 237 237 238 239 241 242 242 243 244 245 247 250 252 254 255 255 254 254 255 255 256 257 259 261 264 266 267 267 268 267 266 265 263 262 261 260 260 262 263 265 266 267 268 267 266 265
241 240 241 240 239 239 237 235 237 240 242 243 244 244 245 247 251 256 260 263 264 262 260 259 259 259 259 260 261 262 264 265 266 267 267 267 267 266 264 263 262 259 258 258 259 261 262 263 265 266 265 265
248 247 248 247 245 245 244 241 241 243 244 245 247 247 247 249 252 255 259 262 263 263 263 262 261 261 261 262 262 263 264 266 268 268 268 267 267 267 266 264 262 259 256 255 256 257 257 259 261 263 264 264
256 254 253 250 247 247 247 245 244 245 246 247 247 247 248 250 252 253 256 258 259 259 259 259 259 259 260 261 261 263 265 267 268 268 268 267 267 266 265 263 261 260 256 254 253 252 254 255 257 260 261 262
258 255 252 251 248 244 242 242 242 243 245 246 246 246 248 250 251 253 257 261 262 262 259 257 256 257 258 259 260 262 264 265 267 267 267 266 265 265 264 263 262 261 257 253 250 250 252 254 254 256 258 261
262 258 254 251 249 246 243 241 242 242 243 245 246 247 249 250 252 254 258 261 263 264 261 257 255 255 256 257 259 261 263 264 265 266 265 264 264 264 264 263 262 260 257 253 249 248 251 252 252 254 255 257
268 264 260 255 251 248 246 244 244 244 244 245 246 248 249 250 251 254 257 260 261 263 261 258 254 253 254 255 257 260 262 263 263 264 265 265 264 263 263 262 260 259 257 254 250 248 250 252 251 252 253 254
276 271 267 262 257 253 250 248 246 246 246 247 247 247 248 249 250 252 254 256 258 259 258 256 254 253 254 255 257 259 260 261 263 265 266 265 264 263 262 260 259 258 257 255 252 249 249 251 250 250 251 252
Height
3086 3086 3086 3086 3086 3086 3087 3087 3087 3087 3087 3088 3088 3088 3088 3087 3087 3087 3087 3087 3087 3087 3087 3087 3087 3087 3087 3087 3087 3087 3087 3088 3088 3088 3088 3089 3089 3089 3089 3089 3089 3089 3090 3091 3092 3093 3094 3095 3095 3096 3096 3096
3084 3084 3084 3084 3084 3084 3085 3085 3085 3085 3085 3085 3085 3085 3085 3085 3085 3084 3084 3084 3084 3084 3084 3084 3084 3084 3085 3085 3084 3085 3085 3085 3085 3085 3086 3086 3087 3087 3086 3086 3086 3087 3088 3088 3089 3090 3090 3091 3092 3092 3093 3093
3082 3082 3082 3082 3082 3082 3083 3083 3083 3083 3083 3082 3082 3082 3082 3082 3082 3081 3081 3081 3081 3081 3081 3081 3081 3081 3082 3082 3082 3082 3082 3082 3082 3083 3083 3084 3084 3084 3083 3083 3083 3084 3085 3086 3086 3087 3087 3087 3088 3089 3089 3089
3080 3080 3080 3080 3080 3080 3080 3080 3080 3080 3080 3080 3079 3079 3079 3079 3079 3078 3078 3078 3078 3078 3078 3078 3078 3078 3078 3078 3078 3079 3079 3079 3079 3080 3080 3081 3081 3081 3080 3080 3080 3081 3082 3083 3083 3084 3084 3084 3085 3085 3086 3086
3078 3078 3078 3078 3078 3078 3078 3078 3078 3078 3077 3077 3076 3076 3076 3076 3076 3075 3075 3075 3075 3075 3075 3075 3075 3075 3076 3076 3076 3076 3076 3076 3076 3076 3077 3078 3078 3078 3077 3077 3078 3078 3079 3079 3080 3081 3081 3081 3082 3082 3083 3083
3076 3076 3076 3076 3076 3076 3076 3076 3075 3075 3075 3074 3074 3073 3073 3073 3073 3073 3072 3072 3072 3072 3072 3072 3072 3072 3073 3073 3073 3073 3073 3073 3073 3073 3074 3074 3075 3074 3074 3074 3075 3075 3076 3076 3077 3077 3078 3078 3079 3079 3080 3080
3073 3073 3074 3074 3074 3074 3073 3073 3073 3072 3072 3072 3071 3071 3071 3070 3070 3070 3070 3070 3070 3070 3069 3069 3069 3069 3070 3070 3070 3070 3070 3070 3070 3070 3071 3071 3071 3071 3071 3071 3071 3072 3072 3072 3073 3074 3074 3075 3076 3076 3077 3077
3070 3071 3071 3071 3071 3071 3071 3070 3070 3070 3069 3069 3069 3068 3068 3067 3067 3067 3067 3067 3067 3067 3066 3066 3066 3066 3066 3066 3066 3066 3066 3066 3067 3067 3067 3067 3067 3067 3067 3068 3068 3068 3068 3069 3069 3069 3070 3071 3072 3072 3073 3073
3068 3068 3068 3068 3068 3068 3068 3067 3067 3067 3066 3066 3065 3065 3065 3064 3064 3064 3064 3064 3064 3064 3063 3063 3063 3063 3063 3063 3063 3063 3063 3063 3063 3063 3063 3063 3064 3064 3064 3064 3064 3064 3064 3065 3065 3065 3066 3067 3067 3068 3069 3069
3064 3064 3064 3065 3065 3065 3064 3064 3064 3064 3063 3063 3062 3062 3061 3061 3061 3061 3060 3060 3060 3060 3060 3060 3060 3060 3059 3059 3059 3059 3059 3059 3059 3059 3059 3059 3060 3060 3060 3060 3060 3060 3060 3061 3061 3061 3062 3062 3063 3064 3065 3065
3060 3061 3061 3062 3062 3061 3061 3061 3060 3060 3060 3060 3059 3059 3058 3058 3057 3057 3057 3057 3057 3057 3057 3056 3056 3056 3056 3056 3056 3056 3055 3055 3055 3055 3055 3056 3056 3056 3056 3056 3057 3057 3057 3057 3057 3058 3058 3059 3059 3060 3061 3061
3057 3057 3058 3058 3058 3058 3058 3057 3057 3057 3057 3056 3056 3055 3055 3054 3054 3054 3054 3054 3053 3053 3053 3053 3053 3053 3052 3052 3052 3052 3052 3052 3052 3052 3052 3052 3052 3052 3052 3053 3053 3053 3053 3053 3054 3054 3055 3055 3055 3056 3057 3057
3054 3054 3054 3055 3055 3055 3054 3054 3054 3054 3053 3053 3052 3052 3051 3051 3051 3051 3051 3050 3050 3050 3050 3050 3049 3049 3049 3049 3048 3048 3048 3048 3048 3048 3048 3048 3048 3049 3049 3049 3049 3050 3050 3050 3050 3050 3051 3051 3052 3052 3053 3053
3050 3050 3051 3051 3051 3051 3051 3050 3051 3050 3049 3049 3049 3048 3048 3048 3047 3047 3047 3047 3047 3046 3046 3046 3046 3046 3045 3045 3045 3045 3045 3044 3044 3044 3044 3044 3045 3045 3045 3045 3046 3046 3046 3046 3046 3046 3047 3047 3048 3048 3049 3049
3046 3046 3047 3048 3048 3047 3047 3047 3046 3046 3045 3045 3045 3045 3045 3044 3044 3044 3044 3043 3043 3043 3043 3042 3042 3042 3042 3042 3041 3041 3041 3041 3040 3040 3040 3041 3041 3041 3041 3041 3042 3042 3042 3042 3042 3043 3043 3043 3044 3044 3045 3045
3041 3042 3043 3043 3043 3043 3043 3043 3042 3042 3041 3041 3041 3041 3041 3040 3040 3040 3040 3040 3040 3039 3039 3039 3038 3038 3038 3038 3038 3037 3037 3036 3036 3036 3036 3037 3037 3037 3037 3037 3038 3038 3038 3038 3038 3038 3039 3039 3039 3040 3040 3041
3034 3035 3037 3038 3038 3039 3039 3039 3038 3038 3037 3037 3038 3037 3037 3036 3036 3036 3036 3036 3036 3036 3035 3035 3035 3034 3035 3034 3034 3033 3033 3032 3032 3032 3032 3033 3033 3033 3033 3033 3034 3034 3034 3034 3034 3034 3035 3035 3035 3036 3036 3036
3026 3027 3029 3030 3031 3033 3033 3034 3034 3033 3033 3033 3033 3033 3033 3032 3032 3032 3032 3032 3032 3032 3031 3031 3031 3031 3031 3030 3030 3029 3029 3028 3028 3028 3028 3029 3029 3029 3029 3029 3030 3030 3030 3030 3030 3030 3031 3031 3031 3031 3032 3032
3019 3020 3021 3022 3024 3025 3026 3027 3028 3028 3028 3029 3029 3029 3028 3028 3028 3028 3028 3028 3027 3027 3027 3027 3027 3027 3027 3026 3025 3025 3024 3024 3024 3024 3024 3025 3025 3025 3025 3025 3026 3026 3026 3026 3026 3026 3027 3027 3027 3027 3027 3028
3015 3014 3015 3016 3016 3017 3019 3020 3021 3021 3022 3022 3023 3023 3023 3023 3024 3024 3023 3023 3023 3023 3023 3023 3023 3023 3022 3021 3021 3020 3020 3019 3019 3019 3019 3020 3020 3021 3021 3021 3022 3022 3022 3022 3022 3022 3023 3023 3023 3023 3023 3023
3012 3011 3011 3011 3011 3011 3012 3012 3013 3014 3014 3014 3015 3015 3016 3017 3018 3018 3018 3018 3018 3018 3018 3018 3018 3018 3017 3016 3016 3015 3015 3015 3015 3014 3014 3015 3016 3016 3017 3017 3017 3017 3018 3018 3018 3018 3019 3018 3018 3018 3018 3019
3010 3009 3009 3008 3007 3007 3007 3007 3007 3007 3007 3008 3008 3008 3009 3010 3011 3011 3012 3012 3012 3012 3012 3012 3012 3012 3012 3011 3011 3010 3010 3010 3010 3009 3009 3010 3011 3012 3012 3012 3012 3013 3013 3013 3014 3014 3014 3014 3014 3014 3014 3014
3006 3006 3005 3005 3004 3003 3003 3002 3002 3002 3002 3002 3003 3003 3004 3004 3004 3005 3005 3005 3006 3006 3006 3006 3006 3006 3006 3006 3005 3005 3005 3004 3004 3004 3005 3005 3006 3007 3007 3007 3007 3007 3008 3008 3009 3009 3010 3009 3009 3009 3009 3009
3002 3001 3000 3000 2999 2999 2998 2998 2997 2997 2997 2997 2997 2998 2998 2998 2999 2999 2999 3000 3000 3000 3000 3000 3000 3000 3000 3000 3000 3000 2999 3000 3000 3000 2999 3000 3000 3001 3001 3002 3002 3002 3003 3003 3004 3004 3005 3005 3005 3004 3004 3004
2997 2996 2996 2995 2994 2994 2993 2992 2992 2992 2992 2992 2992 2992 2992 2993 2993 2994 2994 2995 2995 2995 2995 2995 2995 2995 2995 2995 2995 2994 2995 2995 2994 2994 2994 2994 2994 2995 2995 2996 2997 2997 2997 2997 2998 3000 3000 3000 3000 3000 3000 3000
2993 2992 2991 2990 2989 2989 2988 2987 2987 2987 2987 2987 2987 2987 2987 2987 2988 2988 2989 2989 2989 2990 2990 2989 2989 2989 2989 2989 2989 2989 2989 2989 2989 2989 2989 2988 2988 2989 2990 2990 2991 2991 2992 2992 2993 2994 2994 2994 2995 2995 2995 2996
2988 2987 2986 2984 2983 2983 2982 2982 2982 2981 2981 2981 2981 2981 2981 2981 2982 2982 2983 2983 2983 2983 2983 2983 2983 2983 2983 2983 2982 2982 2983 2983 2983 2983 2983 2983 2983 2983 2984 2984 2985 2986 2986 2987 2988 2988 2988 2989 2990 2990 2990 2991
2982 2981 2980 2979 2978 2977 2977 2976 2976 2976 2976 2975 2975 2975 2975 2975 2976 2976 2976 2976 2976 2976 2976 2976 2976 2976 2976 2976 2976 2976 2976 2977 2977 2977 2977 2977 2977 2977 2977 2978 2979 2980 2980 2980 2982 2982 2981 2983 2984 2984 2986 2986
2976 2975 2974 2974 2973 2972 2971 2971 2970 2970 2970 2969 2969 2969 2969 2969 2969 2969 2970 2969 2969 2969 2969 2969 2969 2969 2969 2970 2970 2969 2970 2970 2971 2971 2970 2970 2970 2970 2971 2972 2972 2973 2973 2974 2976 2976 2975 2976 2978 2979 2981 2982
2970 2969 2969 2968 2967 2966 2965 2965 2964 2963 2963 2963 2962 2962 2962 2962 2962 2962 2962 2962 2962 2962 2962 2962 2962 2962 2962 2963 2963 2963 2963 2964 2964 2964 2964 2964 2964 2964 2964 2965 2965 2965 2966 2967 2969 2969 2969 2971 2972 2973 2975 2976
2965 2964 2963 2962 2961 2960 2959 2958 2957 2956 2956 2955 2955 2955 2955 2955 2955 2955 2955 2955 2955 2955 2955 2955 2955 2955 2956 2956 2956 2956 2956 2956 2957 2957 2957 2957 2957 2956 2957 2957 2957 2958 2960 2961 2962 2964 2964 2965 2965 2967 2968 2970